Flag for Vanuatu Weather past 2 weeks in Port Vila, Vanuatu

Now
68 °F

Passing clouds.


Feels Like: 68 °F
Forecast: 75 / 82 °F
Wind: 1 mph from North

Location: Bauerfield Efate

Current Time: Apr 29, 2015 at 3:17:01 AM

Latest Report: Apr 29, 2015 at 2:00 AM


Visibility: N/A

Pressure: 29.92 "Hg

Humidity: 100%

Dew point: 68 °F

Location of Port VilaLocation

Historic Weather in Port Vila — Graph

°F

Port Vila temperature yesterday

Maximum temperature yesterday: 88 °F (at 1:00 PM)
Minimum temperature yesterday: 68 °F (at 5:00 AM)
Average temperature yesterday: 76 °F

Past Weeks' High & Low Weather Summary

 TemperatureHumidityPressure
High88 °F (Apr 26, 12:00 PM)100% (Apr 14, 7:00 AM)32.52 "Hg (Apr 14, 7:00 AM)
Low66 °F (Apr 22, 5:00 AM)62% (Apr 22, 9:00 AM)29.80 "Hg (Apr 14, 2:00 AM)
Average77 °F85%29.92 "Hg
* Reported Apr 14 2:00 AM — Apr 29 2:00 AM, Port Vila, Weather by CustomWeather, © 2015

Note: Actual official high and low records may vary slightly from our data, if they occured in-between our weather recording intervals... More about our weather records

Advertising

Port Vila weather history for previous 24 hours

 ConditionsComfort  
Time TempWeatherWind HumidityBarometerVisibility
2:00 AM
Wed, Apr 29
68 °FPassing clouds.1 mph100%29.92 "HgN/A
1:00 AM68 °FPassing clouds.2 mph94%29.92 "HgN/A
12:00 AM68 °FPassing clouds.2 mph94%29.95 "HgN/A
11:00 PM
Tue, Apr 28
70 °FPassing clouds.2 mph94%29.95 "HgN/A
10:00 PM70 °FPassing clouds.2 mph94%29.95 "HgN/A
9:00 PM70 °FPassing clouds.2 mph94%29.95 "HgN/A
8:00 PM73 °FPassing clouds.No wind94%29.95 "HgN/A
7:00 PM73 °FPassing clouds.No wind94%29.92 "HgN/A
6:00 PM75 °FPassing clouds.7 mph89%29.89 "HgN/A
5:00 PM82 °FPassing clouds.7 mph70%29.86 "HgN/A
3:00 PM86 °FPassing clouds.12 mph66%29.83 "HgN/A
2:00 PM88 °FPassing clouds.12 mph62%29.83 "HgN/A
1:00 PM88 °FPassing clouds.8 mph66%29.86 "HgN/A
12:00 PM86 °FPassing clouds.8 mph70%29.89 "HgN/A
11:00 AM86 °FPassing clouds.9 mph75%29.92 "HgN/A
5:00 AM68 °FPassing clouds.3 mph100%29.89 "HgN/A
4:00 AM70 °FPassing clouds.3 mph100%29.89 "HgN/A
3:00 AM70 °FPassing clouds.1 mph100%29.89 "HgN/A
Weather by CustomWeather, © 2015

See weather overviewHow to use our weather pages